        P/2012 WX32 = 1931 AN = 2003 WZ141 (Tombaugh-Tenagra)
    Epoch 1985 Dec. 1.0 TT = JDT 2446400.5
    T 1985 Nov. 12.43447 TT                                 MPC
    q   2.4883213            (2000.0)            P               Q
    n   0.10731149     Peri.   39.18751     -0.51841297     -0.80978323
    a   4.3856964      Node    83.69292     +0.69854314     -0.58636454
    e   0.4326280      Incl.   16.04810     +0.49323976     -0.02068204
    P   9.18
    From 125 observations 1931 Jan. 12-2012 Dec. 13, mean residual 0".53.
    
        P/2012 WX32 = 1931 AN = 2003 WZ141 (Tombaugh-Tenagra)
    Epoch 1976 Sept. 19.0 TT = JDT 2443040.5
    T 1976 Sept. 17.27956 TT                                MPC
    q   2.4691450            (2000.0)            P               Q
    n   0.10808087     Peri.   39.12491     -0.51824862     -0.80971786
    a   4.3648583      Node    83.74810     +0.69859754     -0.58647438
    e   0.4343127      Incl.   16.07648     +0.49333543     -0.02011938
    P   9.12
    From 125 observations 1931 Jan. 12-2012 Dec. 13, mean residual 0".53.
    
        P/2012 WX32 = 1931 AN = 2003 WZ141 (Tombaugh-Tenagra)
    Epoch 1967 May 30.0 TT = JDT 2439640.5
    T 1967 June 17.57172 TT                                 MPC
    q   2.5263438            (2000.0)            P               Q
    n   0.10578925     Peri.   37.10048     -0.51062765     -0.81443314
    a   4.4276678      Node    85.18078     +0.70749449     -0.58015144
    e   0.4294189      Incl.   16.05636     +0.48858055     -0.01108953
    P   9.32
    From 125 observations 1931 Jan. 12-2012 Dec. 13, mean residual 0".53.
    
        P/2012 WX32 = 1931 AN = 2003 WZ141 (Tombaugh-Tenagra)
    Epoch 1958 Mar. 18.0 TT = JDT 2436280.5
    T 1958 Mar. 10.03191 TT                                 MPC
    q   2.4340087            (2000.0)            P               Q
    n   0.10927320     Peri.   34.79127     -0.48058995     -0.83181140
    a   4.3330492      Node    85.41464     +0.72801843     -0.55498925
    e   0.4382689      Incl.   16.17679     +0.48889924     +0.00875887
    P   9.02
    From 125 observations 1931 Jan. 12-2012 Dec. 13, mean residual 0".53.
    
        P/2012 WX32 = 1931 AN = 2003 WZ141 (Tombaugh-Tenagra)
    Epoch 1949 Feb. 13.0 TT = JDT 2432960.5
    T 1949 Feb. 19.40400 TT                                 MPC
    q   2.4499974            (2000.0)            P               Q
    n   0.10855625     Peri.   34.76315     -0.48118287     -0.83156678
    a   4.3521062      Node    85.47767     +0.72788198     -0.55536132
    e   0.4370548      Incl.   16.15773     +0.48851905     +0.00839642
    P   9.08
    From 125 observations 1931 Jan. 12-2012 Dec. 13, mean residual 0".53.
    
        P/2012 WX32 = 1931 AN = 2003 WZ141 (Tombaugh-Tenagra)
    Epoch 1940 Jan. 12.0 TT = JDT 2429640.5
    T 1940 Jan. 25.20628 TT                                 MPC
    q   2.4389812            (2000.0)            P               Q
    n   0.10908122     Peri.   34.59841     -0.48011194     -0.83206377
    a   4.3381315      Node    85.56903     +0.72869562     -0.55459827
    e   0.4377807      Incl.   16.17750     +0.48835973     +0.00952081
    P   9.04
    From 125 observations 1931 Jan. 12-2012 Dec. 13, mean residual 0".53.
    
        P/2012 WX32 = 1931 AN = 2003 WZ141 (Tombaugh-Tenagra)
    Epoch 1931 Jan. 19.0 TT = JDT 2426360.5
    T 1931 Jan. 15.24391 TT                                 MPC
    q   2.4368809            (2000.0)            P               Q
    n   0.10895417     Peri.   34.47426     -0.47986986     -0.83209120
    a   4.3415034      Node    85.67590     +0.72900539     -0.55454533
    e   0.4387011      Incl.   16.19522     +0.48813529     +0.01018375
    P   9.05
    From 125 observations 1931 Jan. 12-2012 Dec. 13, mean residual 0".53.
    
        P/2012 WX32 = 1931 AN = 2003 WZ141 (Tombaugh-Tenagra)
    Epoch 2022 Apr. 11.0 TT = JDT 2459680.5
    T 2022 Apr. 8.47085 TT                                  MPC
    q   2.4532057            (2000.0)            P               Q
    n   0.10768894     Peri.   38.47008     -0.47383975     -0.83837811
    a   4.3754426      Node    81.33974     +0.72538290     -0.54507627
    e   0.4393240      Incl.   15.81592     +0.49929504     -0.00374100
    P   9.15
    From 125 observations 1931 Jan. 12-2012 Dec. 13, mean residual 0".53.
    
    Residuals in seconds of arc
    310111 690(19.5- 27.3+)   121204 291  0.2-  0.5+    121209 941  0.5+  0.1+
    310112 690  0.0   0.5-    121205 213  0.3-  0.2-    121209 941  0.5+  0.0
    310113 690  0.1-  1.1-    121205 213  0.3-  0.3-    121209 941  0.6+  0.0
    031121 704  0.1-  1.2-    121205 213  0.2-  0.3-    121210 C32  0.2+  0.4-
    031121 704  1.3+  0.8-    121205 926  0.7-  0.2-    121210 C32  0.4+  0.3-
    031121 704  0.1+  1.0-    121205 926  0.1-  0.1-    121210 C32  0.4+  0.0
    031121 704  0.2+  0.7-    121205 926  0.6-  0.0     121210 B75  0.1+  0.6-
    031121 704  1.1+  0.2+    121205 H45  0.1+  0.1-    121210 B75  1.0+  0.2-
    031123 704  0.1+  0.8-    121205 H45  0.4+  0.0     121210 B75  0.2+  0.1+
    031123 704  0.1-  0.7-    121205 H45  0.6+  0.2+    121211 C10  0.1+  0.2+
    031123 704  1.6-  0.2-    121205 H45  0.5+  0.2-    121211 C10  0.5+  0.0
    031123 704  1.3-  0.5-    121205 H45  0.6+  0.5-    121211 C10  0.2-  0.1-
    031123 704  0.4+  0.9-    121205 H45  0.2+  0.1-    121211 C23  0.0   0.2+
    031218 691  1.2-  1.2+    121205 H45  0.4+  0.2+    121211 C23  0.7+  0.4+
    031218 691  0.9+  0.2+    121205 H45  0.3+  0.1-    121211 C23  0.4+  0.2-
    031218 691  0.6+  0.1+    121205 H45  0.3+  0.3-    121212 B75  0.4+  0.1-
    121127 926  0.2+  0.1+    121205 H45  0.2+  0.4+    121212 B75  0.7+  0.0
    121127 926  0.0   0.2-    121205 C77  0.5-  0.2-    121212 B75  0.8+  0.3+
    121127 926 (2.1-  0.3-)   121205 C77  0.2+  0.0     121212 B75  0.3-  0.1-
    121128 926  0.2-  0.3-    121205 B70  0.0   0.1-    121212 B75  0.2+  0.3+
    121128 926  0.5+  0.2+    121205 C77  0.3+  0.0     121212 691  1.1-  0.0
    121128 926  0.6+  0.0     121205 C77  0.3+  0.0     121212 691  1.4-  0.3+
    121203 926  1.2+  1.2-    121205 B70  0.1+  0.0     121212 691 (2.6-  0.6+)
    121203 926  0.3+  0.4-    121205 B70  1.0+  0.6+    121212 704  0.2-  0.1+
    121203 926  0.0   0.3+    121207 D95  0.6+  0.2-    121212 704  0.5+  0.8+
    121203 926  0.4+  0.1+    121207 D95  0.0   0.1-    121212 704  0.1-  0.2+
    121203 926  0.3+  0.2+    121207 D95  0.3+  0.3-    121212 704  0.6-  0.2+
    121203 926  0.5+  0.3+    121207 349  0.1+  0.2-    121212 704  0.5-  0.7+
    121204 926  0.4-  0.3-    121207 349  0.1-  0.2+    121212 G96  0.4-  0.1-
    121204 926  0.4+  0.4-    121207 349  0.2-  0.4+    121212 G96  1.4-  0.4-
    121204 926  0.4-  0.3+    121208 I57  0.3-  0.4-    121212 G96  1.0-  0.4-
    121204 H06  0.7+  0.3+    121208 I57  0.3+  0.1-    121212 G96  1.1-  0.3-
    121204 H06  0.6+  0.5-    121208 I57  0.5+  0.1+    121213 H45  0.5+  0.2+
    121204 H06  0.9+  0.5-    121208 691  0.9-  0.5-    121213 H45  0.1+  0.4-
    121204 H06  0.8+  0.7+    121208 691  1.0-  0.1-    121213 H45  0.4+  0.3+
    121204 H06  0.4+  0.8+    121208 691  0.9-  0.3+    121213 H45  0.2+  0.1+
    121204 H06  0.0   0.8+    121208 704  0.3+  0.4+    121213 H45  0.1+  0.2+
    121204 G96  0.8-  0.0     121208 704  0.7+  0.4+    121213 H45  0.3+  0.1-
    121204 G96  0.8-  0.1-    121208 704  0.3+  0.1-    121213 H45  0.4+  0.4+
    121204 G96  1.2-  0.0     121208 704  0.0   1.0+    121213 H45  0.5+  0.2+
    121204 G96  1.2-  0.1-    121208 704  0.1+  1.1+    121213 367  1.2-  0.2+
    121204 291  0.6-  1.2+    121208 900  0.2+  0.0     121213 367  1.2-  1.1-
    121204 291  0.6+  0.4+    121208 900  0.1-  0.1-
    
    Ephemeris:
        P/2012 WX32 (Tombaugh-Tenagra)
    Date    TT    R. A. (2000) Decl.     Delta      r     Elong.  Phase   m1    m2
    2012 11 13    07 18 20.1 +25 05 07   1.8732  2.5519   123.1    19.0  18.4
    ...
    2012 11 28    07 21 24.9 +26 58 21   1.7048  2.5229   137.6    15.3  18.2
    ...
    2012 12 06    07 20 26.1 +28 09 40   1.6317  2.5090   145.9    12.7  18.1
    ...
    2012 12 12    07 18 29.3 +29 06 58   1.5859  2.4995   152.2    10.6  18.0
    2012 12 13    07 18 04.0 +29 16 44   1.5791  2.4979   153.3    10.2  18.0
    2012 12 14    07 17 37.2 +29 26 33   1.5726  2.4964   154.3     9.8  18.0
    ...
    2012 12 20    07 14 24.6 +30 26 01   1.5385  2.4878   160.5     7.6  17.9
    ...
    2012 12 28    07 08 58.0 +31 44 34   1.5079  2.4774   167.6     4.9  17.8
    ...
    2013 01 12    06 56 57.2 +33 56 34   1.4974  2.4614   165.3     5.8  17.8
    
    Gareth V. Williams           (C) Copyright 2012 MPC           M.P.E.C. 2012-X79
    

    Read MPEC 2012-X78 Read MPEC 2012-X80


    MPEC number:

    Enter an MPEC number in one of the following forms:

    • 1997-B01 (the full form)
    • J97B01 (the packed version of the full form)
    • B01 (the abbreviated form)